[Date Prev][Date Next][Thread Prev][Thread Next] - [Date Index][Thread Index][Author Index]

2 Line ISS Keps 5-19



ISS
1 25544U 98067A   02139.17877456  .00028924  00000-0  36238-3 0  4636
2 25544  51.6359 198.7856 0006746  92.5653 316.9812 15.59502293199503


----
Via the sarex mailing list at AMSAT.ORG courtesy of AMSAT-NA.
To unsubscribe, send "unsubscribe sarex" to Majordomo@amsat.org



AMSAT Top AMSAT Home